STARLINK-6342, 56770

Orbit data source: Space-Track

STARLINK-6342, 56770 is a payload satellite owned by SpaceX/Seattle (US) in LEO that was launched on Wed, 31 May 2023 UTC via an FALCON 9 launch vehicle from the Air Force Western Test Range (AFWTR). Payload-class satellites include a variety of spacecraft equipped with specific instruments for various scientific and technological missions. These include communications satellites like Starlink; space stations such as the ISS; scientific satellites like the Hubble; Earth observation satellites from companies like Planet Labs, Umbra, and HawkEye 360; GPS; miniature CubeSats for education and research; and military/defense satellites.

Loading next visibility...
Identifier
56770, 2023-078D
Orbit
LEO
Country
Flag of USUS
Related business
Manufacturer
SpaceX/Seattle
Mission
Operational Commercial Communications
Bus & Motor
STARLINK, Unknown motor
Mass
305 kg wet, ~290 kg dry
Launch date (UTC)
2023-05-31 (3 years ago)
Launch vehicle
FALCON 9
Launch site
Air Force Western Test Range (AFWTR)
Object type
Payload
Rocket body
Debris
Shape & HBR
Box + 1 Pan, 10.1 m
Radar Cross Section
11.087 m², Large (>1 m²)

Expand to show TLE details & history
Last TLE update: 2 days ago

TLE from 2 days ago
0 STARLINK-6342
1 56770U 23078D   26171.21027006 -.00001419  00000-0 -11117-3 0  9991
2 56770  69.9995 105.9689 0002791 271.2346  88.8493 14.98322322167545
Epoch: 2026-06-20T05:02Z
TLE epoch observation values (Epoch: 2026-06-20T05:02:47.333Z)
Latitude
-0.00004°
Longitude
121.8435°
Altitude
574.465 km
Speed
7.574 km/s
True Right ascension
07h 03m 52s
True Declination
0° 00' 00"
Sunlit
Object was in daylight at epoch
Visualization orbit readout
Latitude
Unknown
Longitude
Unknown
Altitude
Unknown
Speed
Unknown
Apparent Right ascension
Unknown
Apparent Declination
Unknown
Sunlit
N/A
Visualization observer readout
Local Sidereal Time
21:32:51
Azimuth
Unknown
Elevation
Unknown
Doppler factor
Unknown
Orbital elements
Apogee altitude
571.967 km
Perigee altitude
568.089 km
Semi-major axis
6,948.165 km
Eccentricity
0.00028
Inclination
69.9995°
RAAN
105.9689°
Arg. of periapsis
271.2346°
True anomaly
88.88128°
Mean anomaly
88.8493°
Eccentric anomaly
88.86529°
Mean motion
3.74747 °/min
Orbital period
96.06 mins
BSTAR
-0.00011117
Loading maneuver chart data...
Computing Atmospheric mass density...
Loading historical data...
Loading historical data...
Loading historical data...
Loading historical data...
Loading historical data...
Loading historical data...
Loading historical data...

Documentation

Showing up to 5 results
|